Satellite: NOAA-11
Catalog number: 19531
Epoch time:      07004.34651123
Element set:     459
Inclination:      098.8197 deg
RA of node:       095.5266 deg
Eccentricity:    0.0012080
Arg of perigee:   134.1600 deg
Mean anomaly:     226.0548 deg
Mean motion:   14.14831976 rev/day
Decay rate:       -8.2e-07 rev/day^2
Epoch rev:           94298
Checksum:              301

Satellite: NOAA-12
Catalog number: 21263
Epoch time:      07004.41109828
Element set:     955
Inclination:      098.7438 deg
RA of node:       001.9937 deg
Eccentricity:    0.0012348
Arg of perigee:   220.5104 deg
Mean anomaly:     139.5167 deg
Mean motion:   14.25519636 rev/day
Decay rate:       -4.3e-07 rev/day^2
Epoch rev:           81291
Checksum:              294

Satellite: MET-3/5
Catalog number: 21655
Epoch time:      07003.85009008
Element set:     207
Inclination:      082.5544 deg
RA of node:       119.0547 deg
Eccentricity:    0.0012362
Arg of perigee:   260.3388 deg
Mean anomaly:     099.6336 deg
Mean motion:   13.17009548 rev/day
Decay rate:        5.1e-07 rev/day^2
Epoch rev:           73977
Checksum:              299

Satellite: MET-2/21
Catalog number: 22782
Epoch time:      07004.57528811
Element set:     713
Inclination:      082.5464 deg
RA of node:       171.7004 deg
Eccentricity:    0.0022025
Arg of perigee:   338.9140 deg
Mean anomaly:     021.1117 deg
Mean motion:   13.83614225 rev/day
Decay rate:       -2.0e-08 rev/day^2
Epoch rev:           67389
Checksum:              269

Satellite: OKEAN-4
Catalog number: 23317
Epoch time:      07004.77226142
Element set:     150
Inclination:      082.5402 deg
RA of node:       088.9928 deg
Eccentricity:    0.0023863
Arg of perigee:   072.2661 deg
Mean anomaly:     288.1158 deg
Mean motion:   14.82451663 rev/day
Decay rate:       1.90e-06 rev/day^2
Epoch rev:           65984
Checksum:              304

Satellite: NOAA-14
Catalog number: 23455
Epoch time:      07004.30539227
Element set:     449
Inclination:      099.0145 deg
RA of node:       069.4568 deg
Eccentricity:    0.0009403
Arg of perigee:   199.2177 deg
Mean anomaly:     160.8671 deg
Mean motion:   14.13690318 rev/day
Decay rate:       2.85e-06 rev/day^2
Epoch rev:           61948
Checksum:              319

Satellite: SICH-1
Catalog number: 23657
Epoch time:      07003.82281782
Element set:     952
Inclination:      082.5282 deg
RA of node:       230.7700 deg
Eccentricity:    0.0025523
Arg of perigee:   065.0689 deg
Mean anomaly:     295.3161 deg
Mean motion:   14.81437413 rev/day
Decay rate:       3.10e-06 rev/day^2
Epoch rev:           61169
Checksum:              285

Satellite: NOAA-15
Catalog number: 25338
Epoch time:      07004.38729453
Element set:     815
Inclination:      098.5239 deg
RA of node:       005.7477 deg
Eccentricity:    0.0011107
Arg of perigee:   144.0584 deg
Mean anomaly:     216.1359 deg
Mean motion:   14.24620956 rev/day
Decay rate:       1.86e-06 rev/day^2
Epoch rev:           44936
Checksum:              312

Satellite: RESURS
Catalog number: 25394
Epoch time:      07004.22555989
Element set:     539
Inclination:      098.4679 deg
RA of node:       065.0521 deg
Eccentricity:    0.0001315
Arg of perigee:   346.8866 deg
Mean anomaly:     013.2278 deg
Mean motion:   14.24123002 rev/day
Decay rate:       -2.8e-07 rev/day^2
Epoch rev:           44101
Checksum:              282

Satellite: FENGYUN1
Catalog number: 25730
Epoch time:      07004.39394934
Element set:     920
Inclination:      098.6429 deg
RA of node:       354.5008 deg
Eccentricity:    0.0013781
Arg of perigee:   289.7568 deg
Mean anomaly:     070.2137 deg
Mean motion:   14.11819200 rev/day
Decay rate:      -1.39e-06 rev/day^2
Epoch rev:           39440
Checksum:              302

Satellite: OKEAN-0
Catalog number: 25860
Epoch time:      07004.56962931
Element set:     944
Inclination:      097.7295 deg
RA of node:       014.4806 deg
Eccentricity:    0.0001135
Arg of perigee:   109.4366 deg
Mean anomaly:     250.6963 deg
Mean motion:   14.73420426 rev/day
Decay rate:        8.9e-07 rev/day^2
Epoch rev:           40140
Checksum:              292

Satellite: NOAA-16
Catalog number: 26536
Epoch time:      07004.40787537
Element set:     214
Inclination:      099.0955 deg
RA of node:       338.6793 deg
Eccentricity:    0.0009898
Arg of perigee:   274.5524 deg
Mean anomaly:     085.4528 deg
Mean motion:   14.12396336 rev/day
Decay rate:       2.91e-06 rev/day^2
Epoch rev:           32398
Checksum:              344

Satellite: NOAA-17
Catalog number: 27453
Epoch time:      07004.29475741
Element set:     233
Inclination:      098.6023 deg
RA of node:       077.3882 deg
Eccentricity:    0.0011615
Arg of perigee:   207.0832 deg
Mean anomaly:     152.9742 deg
Mean motion:   14.23842854 rev/day
Decay rate:       2.09e-06 rev/day^2
Epoch rev:           23539
Checksum:              300

Satellite: NOAA-18
Catalog number: 28654
Epoch time:      07004.31223515
Element set:     786
Inclination:      098.8129 deg
RA of node:       308.4967 deg
Eccentricity:    0.0014638
Arg of perigee:   014.9279 deg
Mean anomaly:     345.2331 deg
Mean motion:   14.11026687 rev/day
Decay rate:       3.02e-06 rev/day^2
Epoch rev:            8374
Checksum:              310

/EX
SB KEPS @ AMSAT  $ORB07004.M
Orbital Elements  07004.MISC

HR AMSAT ORBITAL ELEMENTS FOR MANNED AND MISCELLANEOUS SATELLITES
FROM WA5QGD FORT WORTH,TX January 4, 2007
Send SUBSCRIBE KEPS/UNSUBSCRIBE KEPS to majordomo at amsat.org only
BID: ORB07004.M
TO ALL RADIO AMATEURS BT

Satellite: HUBBLE
Catalog number: 20580
Epoch time:      07004.81865532
Element set:     775
Inclination:      028.4657 deg
RA of node:       175.3632 deg
Eccentricity:    0.0003827
Arg of perigee:   163.5544 deg
Mean anomaly:     196.5169 deg
Mean motion:   15.00169143 rev/day
Decay rate:       4.06e-06 rev/day^2
Epoch rev:           71540
Checksum:              293

Satellite: UARS
Catalog number: 21701
Epoch time:      07004.17554861
Element set:     962
Inclination:      056.9772 deg
RA of node:       304.6767 deg
Eccentricity:    0.0092497
Arg of perigee:   233.4316 deg
Mean anomaly:     125.8200 deg
Mean motion:   15.46266756 rev/day
Decay rate:      5.519e-05 rev/day^2
Epoch rev:           84036
Checksum:              313

Satellite: PO-34
Catalog number: 25520
Epoch time:      07004.42339653
Element set:     646
Inclination:      028.4588 deg
RA of node:       124.7217 deg
Eccentricity:    0.0005395
Arg of perigee:   264.2225 deg
Mean anomaly:     095.7760 deg
Mean motion:   15.16893285 rev/day
Decay rate:       5.11e-06 rev/day^2
Epoch rev:           45263
Checksum:              306

Satellite: ISS
Catalog number: 25544
Epoch time:      07004.81522880
Element set:     382
Inclination:      051.6336 deg
RA of node:       228.0502 deg
Eccentricity:    0.0023673
Arg of perigee:   055.5770 deg
Mean anomaly:     042.5549 deg
Mean motion:   15.76725951 rev/day
Decay rate:     2.3137e-04 rev/day^2
Epoch rev:           46497
Checksum:              301

Satellite: OO-38
Catalog number: 26063
Epoch time:      07004.82661340
Element set:     807
Inclination:      100.2122 deg
RA of node:       337.3781 deg
Eccentricity:    0.0036577
Arg of perigee:   259.6351 deg
Mean anomaly:     100.0707 deg
Mean motion:   14.35791903 rev/day
Decay rate:        1.1e-07 rev/day^2
Epoch rev:           36360
Checksum:              271

Satellite: NO-45
Catalog number: 26932
Epoch time:      07004.79020262
Element set:     495
Inclination:      067.0524 deg
RA of node:       208.1252 deg
Eccentricity:    0.0003322
Arg of perigee:   259.1306 deg
Mean anomaly:     100.9421 deg
Mean motion:   14.29545675 rev/day
Decay rate:       -5.9e-07 rev/day^2
Epoch rev:           27478
Checksum:              287

Satellite: UWE-1
Catalog number: 28892
Epoch time:      07003.46615061
Element set:     644
Inclination:      098.1479 deg
RA of node:       263.2185 deg
Eccentricity:    0.0016327
Arg of perigee:   267.1615 deg
Mean anomaly:     092.7696 deg
Mean motion:   14.59447735 rev/day
Decay rate:       1.13e-06 rev/day^2
Epoch rev:            6318
Checksum:              316

Satellite: CO-58
Catalog number: 28895
Epoch time:      07003.65602363
Element set:     626
Inclination:      098.1503 deg
RA of node:       263.5557 deg
Eccentricity:    0.0016859
Arg of perigee:   267.0567 deg
Mean anomaly:     092.8687 deg
Mean motion:   14.59498188 rev/day
Decay rate:       1.85e-06 rev/day^2
Epoch rev:            6309
Checksum:              360

Satellite: NCUBE2
Catalog number: 28897
Epoch time:      07002.72067334
Element set:     165
Inclination:      098.1477 deg
RA of node:       262.6063 deg
Eccentricity:    0.0016422
Arg of perigee:   272.0201 deg
Mean anomaly:     087.9104 deg
Mean motion:   14.59656440 rev/day
Decay rate:       1.58e-06 rev/day^2
Epoch rev:            5523
Checksum:              290

Satellite: NMARS
Catalog number: 29662
Epoch time:      07004.85863090
Element set:      24
Inclination:      051.6423 deg
RA of node:       227.0339 deg
Eccentricity:    0.0014319
Arg of perigee:   076.0062 deg
Mean anomaly:     284.2611 deg
Mean motion:   15.83924747 rev/day
Decay rate:     7.0998e-04 rev/day^2
Epoch rev:             224
Checksum:              289

Satellite: FCAL
Catalog number: 29664
Epoch time:      07004.80422194
Element set:      14
Inclination:      051.6319 deg
RA of node:       227.4151 deg
Eccentricity:    0.0017655
Arg of perigee:   070.0624 deg
Mean anomaly:     290.2278 deg
Mean motion:   15.82512265 rev/day
Decay rate:     2.9764e-04 rev/day^2
Epoch rev:             221
Checksum:              270

/EX





More information about the Keps mailing list